Asturias, Spain

5:38 AM CEST en Julio 21, 2018 (GMT +0200)
Asturias

Tiempo Historia de LEAS - Abril, 2018

Change the Weather History Date:

Lunes, Abril 16, 2018

  Actual Average Record
Temperature  
Temperatura media 53 ° F -  
Temperatura máxima 62 ° F 60 ° F 69 ° F (2014)
Temperatura mínima 44 ° F 48 ° F 41 ° F (1999)
Degree Days  
Grados día de calefacción 12    
Growing Degree Days 3 (Base 50)    
Moisture  
Punto de rocío 45 ° F    
Average Humidity 72    
Maximum Humidity 100    
Minimum Humidity 40    
Precipitación  
Precipitación 0.00 pul - - ()
Presión al nivel del mar  
Presión al nivel del mar 30.04 pul    
Viento  
Velocidad del viento 6 mph ()    
Velocidad máxima del viento 14 mph    
Max Gust Speed -    
Visibilidad 7.0 Millas    
Eventos      
Averages and records for this station are not official NWS values.
T = Trace of Precipitation, MM = Missing Value Source: Averaged Metar Reports

Daily Weather History Graph

Daily Weather History Graph

Search for Another Location

Airport or City:

Astronomía

Apr. 16, 2018 Salida Puesta
Hora real 7:40 AM CEST 9:08 PM CEST
Crepúsculo civil 7:10 AM CEST 9:38 PM CEST
Crepúsculo náutico 6:34 AM CEST 10:14 PM CEST
Crepúsculo astronómico 5:55 AM CEST 10:53 PM CEST
Luna 8:16 AM CEST (4/16) 9:41 PM CEST (4/16)
Horas de luz 14h 28m
Horas de luz
13h 28m
Luna nueva, 0% of the Moon is Illuminated
Abr 16
Luna nueva
Abr 22
Cuarto creciente
Abr 30
Luna llena
May 8
Cuarto menguante
May 15
Nueva

Hourly Weather History & Observations

Hora (CEST) Temp. Vientos helados Punto de rocío Humedad Presión Visibilidad Wind Dir Velocidad del viento Velocidad de ráfagas Precip Eventos Condiciones
12:00 AM 52 ° F - 48 ° F 82% 30.03 pul - ONO 5.8 mph - -  
12:00 AM 51.8 ° F - 48.2 ° F 88% 30.01 pul 5.6 mi NO 4.6 mph - N/A   Nublado
12:30 AM 50.0 ° F - 46.4 ° F 87% 30.01 pul 6.2 mi ONO 6.9 mph - N/A   Nublado
1:00 AM 51.8 ° F - 46.4 ° F 82% 30.01 pul 6.2 mi ONO 6.9 mph - N/A   Nublado
1:30 AM 50.0 ° F - 46.4 ° F 87% 30.01 pul 6.2 mi ONO 5.8 mph - N/A   Nublado
2:00 AM 50 ° F - 46 ° F 81% 30.04 pul - Oeste 5.8 mph - -  
2:00 AM 50.0 ° F - 46.4 ° F 87% 30.04 pul 6.2 mi Oeste 5.8 mph - N/A   Nublado
2:30 AM 50.0 ° F - 46.4 ° F 87% 30.04 pul 6.2 mi Oeste 2.3 mph - N/A   Nublado
3:00 AM 50.0 ° F - 46.4 ° F 87% 30.04 pul 6.2 mi Sur 2.3 mph - N/A   Nublado
3:30 AM 50.0 ° F - 46.4 ° F 87% 30.04 pul 6.2 mi Variable 1.2 mph - N/A   Muy nublado
4:00 AM 48 ° F - 45 ° F 84% 30.05 pul - SO 4.6 mph - -  
4:00 AM 48.2 ° F - 46.4 ° F 93% 30.04 pul 6.2 mi OSO 4.6 mph - N/A   Desconocido
4:30 AM 48.2 ° F - 46.4 ° F 93% 30.04 pul 6.2 mi SO 4.6 mph - N/A   Nubes dispersas
5:00 AM 48.2 ° F - 46.4 ° F 93% 30.04 pul 6.2 mi OSO 4.6 mph - N/A   Muy nublado
5:30 AM 46.4 ° F 44.3 ° F 46.4 ° F 100% 30.04 pul 6.2 mi OSO 4.6 mph - N/A   Parcialmente nublado
6:00 AM 47 ° F - 45 ° F 90% 30.06 pul - SO 4.6 mph - -  
6:00 AM 48.2 ° F - 46.4 ° F 93% 30.04 pul 6.2 mi SO 5.8 mph - N/A   Nubes dispersas
6:30 AM 46.4 ° F 43.5 ° F 46.4 ° F 100% 30.04 pul 6.2 mi OSO 5.8 mph - N/A   Nubes dispersas
7:00 AM 46 ° F - 44 ° F 90% 30.06 pul - Sur 6.9 mph - -  
7:00 AM 46.4 ° F 44.3 ° F 44.6 ° F 93% 30.04 pul 6.2 mi SSO 4.6 mph - N/A   Nubes dispersas
7:30 AM 44.6 ° F 42.2 ° F 42.8 ° F 93% 30.04 pul 6.2 mi OSO 4.6 mph - N/A   Nubes dispersas
8:00 AM 45 ° F - 44 ° F 93% 30.07 pul 11 mi SSO 8.1 mph - -   Parcialmente nublado
8:00 AM 46.4 ° F 43.5 ° F 41.0 ° F 81% 30.06 pul 6.2 mi SO 5.8 mph - N/A   Nubes dispersas
8:30 AM 46.4 ° F 44.3 ° F 42.8 ° F 87% 30.04 pul 6.2 mi OSO 4.6 mph - N/A   Nubes dispersas
9:00 AM 48 ° F - 45 ° F 85% 30.07 pul - SSO 8.1 mph - -  
9:00 AM 50.0 ° F - 42.8 ° F 76% 30.06 pul 6.2 mi SSO 5.8 mph - N/A   Parcialmente nublado
9:30 AM 50.0 ° F - 42.8 ° F 76% 30.06 pul 6.2 mi OSO 8.1 mph - N/A   Parcialmente nublado
10:00 AM 51 ° F - 44 ° F 68% 30.08 pul - SO 9.2 mph - -  
10:30 AM 53.6 ° F - 42.8 ° F 67% 30.06 pul 6.2 mi SO 8.1 mph - N/A   Parcialmente nublado
11:00 AM 56 ° F - 44 ° F 54% 30.08 pul 16 mi SSO 8.1 mph - -   Nubes dispersas
11:00 AM 55.4 ° F - 41.0 ° F 58% 30.06 pul 6.2 mi SO 9.2 mph - N/A   Parcialmente nublado
11:30 AM 57.2 ° F - 41.0 ° F 55% 30.06 pul 6.2 mi SSO 8.1 mph - N/A   Parcialmente nublado
12:00 PM 60 ° F - 42 ° F 40% 30.07 pul - SO 5.8 mph - -  
12:00 PM 59.0 ° F - 37.4 ° F 45% 30.06 pul 6.2 mi Sur 6.9 mph - N/A   Parcialmente nublado
12:30 PM 59.0 ° F - 42.8 ° F 55% 30.06 pul 6.2 mi ENE 5.8 mph - N/A   Parcialmente nublado
1:00 PM 59.0 ° F - 44.6 ° F 59% 30.06 pul 6.2 mi NE 6.9 mph - N/A   Parcialmente nublado
1:30 PM 59.0 ° F - 44.6 ° F 59% 30.06 pul 6.2 mi NE 8.1 mph - N/A   Parcialmente nublado
2:00 PM 61 ° F - 47 ° F 49% 30.07 pul 17 mi ENE 5.8 mph - -   Nubes dispersas
2:00 PM 59.0 ° F - 44.6 ° F 59% 30.06 pul 6.2 mi NE 8.1 mph - N/A   Parcialmente nublado
2:30 PM 60.8 ° F - 48.2 ° F 63% 30.06 pul 6.2 mi ENE 8.1 mph - N/A   Parcialmente nublado
3:00 PM 60 ° F - 46 ° F 49% 30.06 pul - Este 9.2 mph - -  
3:00 PM 59.0 ° F - 46.4 ° F 63% 30.04 pul 6.2 mi ENE 8.1 mph - N/A   Parcialmente nublado
3:30 PM 60.8 ° F - 44.6 ° F 55% 30.04 pul 6.2 mi NE 9.2 mph - N/A   Parcialmente nublado
4:00 PM 62 ° F - 45 ° F 43% 30.04 pul - Este 9.2 mph - -  
4:00 PM 60.8 ° F - 44.6 ° F 55% 30.04 pul 6.2 mi Este 11.5 mph - N/A   Parcialmente nublado
4:30 PM 60.8 ° F - 44.6 ° F 55% 30.04 pul 6.2 mi Este 9.2 mph - N/A   Parcialmente nublado
5:00 PM 61 ° F - 44 ° F 43% 30.03 pul 19 mi Este 9.2 mph - -   Nubes dispersas
5:00 PM 60.8 ° F - 44.6 ° F 55% 30.04 pul 6.2 mi Este 11.5 mph - N/A   Parcialmente nublado
5:30 PM 59.0 ° F - 44.6 ° F 59% 30.01 pul 6.2 mi Este 12.7 mph - N/A   Parcialmente nublado
6:00 PM 61 ° F - 44 ° F 41% 30.01 pul - ESE 13.8 mph - -  
6:00 PM 59.0 ° F - 42.8 ° F 55% 30.01 pul 6.2 mi Este 11.5 mph - N/A   Parcialmente nublado
6:30 PM 59.0 ° F - 44.6 ° F 59% 30.01 pul 6.2 mi Este 11.5 mph - N/A   Parcialmente nublado
7:00 PM 59 ° F - 45 ° F 48% 30.02 pul - ESE 11.5 mph - -  
7:00 PM 57.2 ° F - 44.6 ° F 63% 30.01 pul 6.2 mi Este 11.5 mph - N/A   Parcialmente nublado
7:30 PM 57.2 ° F - 46.4 ° F 67% 30.01 pul 6.2 mi Este 9.2 mph - N/A   Parcialmente nublado
8:00 PM 57 ° F - 46 ° F 57% 30.01 pul 22 mi ESE 11.5 mph - -   Nubes dispersas
8:30 PM 55.4 ° F - 46.4 ° F 72% 30.01 pul 6.2 mi Este 6.9 mph - N/A   Parcialmente nublado
9:00 PM 55 ° F - 47 ° F 65% 30.03 pul - ESE 9.2 mph - -  
9:00 PM 55.4 ° F - 48.2 ° F 77% 30.01 pul 6.2 mi Este 6.9 mph - N/A   Parcialmente nublado
9:30 PM 53.6 ° F - 48.2 ° F 82% 30.01 pul 6.2 mi ESE 5.8 mph - N/A   Parcialmente nublado
10:00 PM 53.6 ° F - 46.4 ° F 77% 30.04 pul 6.2 mi SE 4.6 mph - N/A   Parcialmente nublado
10:30 PM 53.6 ° F - 46.4 ° F 77% 30.04 pul 6.2 mi SE 3.5 mph - N/A   Parcialmente nublado
11:00 PM 51.8 ° F - 46.4 ° F 82% 30.04 pul 6.2 mi Variable 1.2 mph - N/A   Parcialmente nublado
11:30 PM 51.8 ° F - 46.4 ° F 82% 30.04 pul 6.2 mi Variable 2.3 mph - N/A   Parcialmente nublado